Regional Weather Roundup
Issued by NWS

Home | Current Version | Previous Version | Graphics & Text | Print | Product List | Glossary On
Versions: 1 2 3 4 5 6 7 8 9 10 11 12 13 14 15 16 17 18 19 20 21 22 23 24 25 26 27 28 29 30 31 32 33 34 35 36 37 38 39 40 41 42 43 44 45 46 47 48 49 50
000
ASUS45 KPSR 241710
RWRAZ

ARIZONA REGIONAL HOURLY WEATHER ROUNDUP
NATIONAL WEATHER SERVICE PHOENIX AZ
1000 AM MST FRI APR 24 2015

NOTE: FAIR INDICATES FEW OR NO CLOUDS BELOW 12,000 FEET WITH NO
SIGNIFICANT WEATHER AND/OR OBSTRUCTIONS TO VISIBILITY.

AZZ001>003-036-241800-
NORTHWEST ARIZONA

CITY           SKY/WX    TMP DP  RH WIND       PRES   REMARKS
BULLHEAD CITY  SUNNY     72  45  37 S15G23    29.84S
KINGMAN        NOT AVBL
$$

AZZ004>008-015-016-018-241800-
NORTH CENTRAL ARIZONA

CITY           SKY/WX    TMP DP  RH WIND       PRES   REMARKS
GRAND CANYON   MOSUNNY   52  32  46 SW13G24   29.96S
WILLIAMS       PTSUNNY   48  34  57 SW9G22    30.05R
PRESCOTT       PTSUNNY   56  37  49 S14G20    29.97S
FLAGSTAFF      LGT RAIN  44  37  76 SW13      29.99S
PAYSON         MOSUNNY   54  39  58 SW9G15    30.02R
PAGE           SUNNY     63  30  28 VRB5      29.85S
$$

AZZ009>014-017-241800-
NORTHEAST ARIZONA

CITY           SKY/WX    TMP DP  RH WIND       PRES   REMARKS
WINSLOW        CLOUDY    55  40  56 W15       29.94S
SAINT JOHNS    MOSUNNY   57  24  28 SW21G30   29.95S
WINDOW ROCK    MOSUNNY   52  27  38 SW18G26   29.95S
SHOW LOW       MOSUNNY   50  25  37 SW15G25   30.02R
$$

AZZ023-241800-
GREATER PHOENIX AREA

CITY           SKY/WX    TMP DP  RH WIND       PRES   REMARKS
PHOENIX        PTSUNNY   67  48  50 CALM      29.94R
BUCKEYE        MOSUNNY   64  54  68 S7        29.96R
GLENDALE       PTSUNNY   66  48  52 CALM      29.96R
LUKE AFB       PTSUNNY   68  53  58 SW13      29.93S
DEER VALLEY    CLOUDY    58  52  80 E6        29.96R
SCOTTSDALE     CLOUDY    64  51  62 N5        29.97R
MESA-GATEWAY   PTSUNNY   66  48  52 SW15      29.97R
CHANDLER       PTSUNNY   68  50  52 S18       29.96R
$$

AZZ027-028-241800-
SOUTHWEST MARICOPA COUNTY AND PINAL COUNTY

CITY           SKY/WX    TMP DP  RH WIND       PRES   REMARKS
CASA GRANDE    CLOUDY    68  46  45 SW9G17    29.95S
GILA BEND      SUNNY     72  51  46 SW15G23   29.93R
$$

AZZ503-504-507>509-241800-
SOUTHEAST ARIZONA

CITY           SKY/WX    TMP DP  RH WIND       PRES   REMARKS
TUCSON         PTSUNNY   65  40  39 S12       30.02R
DAVIS-MONTHAN  MOSUNNY   63  42  46 S7        30.01R
RYAN FIELD       N/A     66  43  42 SW14      30.02R
NOGALES        PTSUNNY   61  38  42 VRB6      30.05R
SIERRA VISTA   MOSUNNY   56  32  40 VRB5      30.05R
DOUGLAS        MOSUNNY   61  34  36 SW12G18   30.04R
SAFFORD        SUNNY     67  38  34 NW14G22   29.95S
$$

AZZ020-021-025-026-031-241800-
SOUTHWEST ARIZONA

CITY           SKY/WX    TMP DP  RH WIND       PRES   REMARKS
YUMA           MOSUNNY   72  48  42 S9        29.93R
$$

CAZ031-033-041-043-047-048-061-241800-
SOUTHERN CALIFORNIA

CITY           SKY/WX    TMP DP  RH WIND       PRES   REMARKS
DOWNTOWN L.A.  CLOUDY    62  52  69 CALM      29.99R
L.A. AIRPORT   CLOUDY    59  53  80 W7        30.01R
SAN DIEGO      CLOUDY    62  52  69 SW8       30.04R
BURBANK        CLOUDY    60  48  64 SE7       29.99R
ONTARIO        CLOUDY    61  48  62 W5        30.00R
RIVERSIDE      CLOUDY    60  49  66 CALM      30.01R
PALM SPRINGS   SUNNY     74  45  35 N8G21     29.90R
EL CENTRO NAS  MOSUNNY   75  45  34 W24       29.93R
IMPERIAL       SUNNY     72  47  40 W20       29.90R
BLYTHE         SUNNY     72  48  42 S18       29.88R
NEEDLES        SUNNY     75  41  29 S13       29.85R
$$

NVZ020-UTZ003-241800-
SOUTHERN NEVADA-UTAH

CITY           SKY/WX    TMP DP  RH WIND       PRES   REMARKS
LAS VEGAS      MOSUNNY   69  41  36 S18G28    29.77R
SALT LAKE CITY PTSUNNY   61  32  33 S17G25    29.71S
$$

NMZ009-TXZ055-241800-
NEW MEXICO-WEST TEXAS

CITY           SKY/WX    TMP DP  RH WIND       PRES   REMARKS
ALBUQUERQUE    CLOUDY    50  37  61 SW5       29.95R
EL PASO        MOSUNNY   66  32  28 SW20G29   29.95F
$$


........................KEY........................
SKY/WX - SKY CONDITION/WEATHER
TMP    - TEMPERATURE IN FAHRENHEIT
DP     - DEW POINT IN FAHRENHEIT
RH     - RELATIVE HUMIDITY IN PERCENT
WIND   - DIRECTION AND SPEED IN MILES PER HOUR (MPH)
VRB    - VARIABLE WIND DIRECTION
PRES   - MEAN SEA LEVEL PRESSURE IN INCHES OF MERCURY
         F - FALLING PRESSURE   R - RISING PRESSURE
         S - STEADY PRESSURE
VSB    - VISIBILITY IN MILES
HX     - HEAT INDEX IN FAHRENHEIT
WCI    - WIND CHILL INDEX IN FAHRENHEIT
TC     - TEMPERATURE IN CELSIUS WHICH IS ALSO KNOWN AS
         TEMPERATURE IN CENTIGRADE
AFB    - AIR FORCE BASE
         LUKE AFB IS LUKE AIR FORCE BASE
         DAVIS-MONTHAN IS DAVIS-MONTHAN AIR FORCE BASE
NAS    - NAVAL AIR STATION
         EL CENTRO NAS IS EL CENTRO NAVAL AIR STATION
N/A    - NOT AVAILABLE




USA.gov is the U.S. government's official web portal to all federal, state and local government web resources and services.